Simultaneous Nadir Overpasses (SNOs) Predictions

Prediction of SNOs between GOES-16 and AQUA Satellite Orbit:

Table of predicted SNOs for the next 14.0 days since TLE Epoch: 3/23/2018
Index Date Time (GOES-16) GOES-16 Lat,Lon AQUA Lat,Lon Distance(km) Time Diff (sec)
1 03/25/2018 18:30:02 -0.02, -75.20 0.44, -73.16 232.68 80
2 03/26/2018 06:51:17 0.02, -75.21 0.65, -78.32 353.29 80
3 03/28/2018 06:39:05 0.02, -75.23 0.06, -75.36 14.60 80
4 03/30/2018 06:24:15 0.02, -75.26 -0.60, -72.40 324.97 80
5 03/30/2018 18:45:37 -0.02, -75.27 -0.54, -77.59 264.14 80
6 04/01/2018 18:36:06 -0.02, -75.31 0.13, -74.64 76.46 80
7 04/03/2018 18:23:54 -0.02, -75.35 0.75, -71.67 417.61 80
8 04/04/2018 06:45:10 0.02, -75.37 0.36, -76.83 167.32 80
9 04/06/2018 06:30:19 0.02, -75.41 -0.31, -73.88 174.38 80
10 04/06/2018 18:51:42 -0.02, -75.42 -0.81, -79.07 414.54 80




NCC Satellite Simultaneous Nadir Overpasses (SNOs) Prediction Service
